Weather History for Highgate, VT

Change the Weather History Date:

Wednesday, October 30, 2013

  Actual Average (KPBG) Record (KPBG)
Temperature  
Mean Temperature 38 °F 43 °F  
Max Temperature 48 °F 52 °F 75 °F (1950)
Min Temperature 29 °F 33 °F 22 °F (1959)
Degree Days  
Heating Degree Days 26 22  
Month to date heating degree days 523  
Since 1 July heating degree days 758  
Cooling Degree Days 0 0  
Month to date cooling degree days 0  
Year to date cooling degree days 345  
Moisture  
Dew Point 30 °F    
Average Humidity 73    
Maximum Humidity 87    
Minimum Humidity 59    
Precipitation  
Precipitation 0.00 in - 0.59 in (2012)
Month to date precipitation  
Year to date precipitation  
Sea Level Pressure  
Sea Level Pressure 30.24 in    
Wind  
Wind Speed 2 mph (SSE)    
Max Wind Speed 6 mph    
Max Gust Speed -    
Visibility 10 miles    
Events      
T = Trace of Precipitation, MM = Missing Value Source: NWS Daily Summary

Daily Weather History Graph

Daily Weather History Graph

Search for Another Location

Airport:

Trip Planner

Search our weather history database for the weather conditions in past years. The results will help you decide how hot, cold, wet, or windy it might be!

Date:

Astronomy

Oct. 30, 2013 Rise Set
Actual Time 7:28 AM EDT 5:43 PM EDT
Civil Twilight 6:57 AM EDT 6:13 PM EDT
Nautical Twilight 6:23 AM EDT 6:48 PM EDT
Astronomical Twilight 5:49 AM EDT 7:22 PM EDT
Moon 3:04 AM EDT (10/30) 3:36 PM EDT (10/30)
Length of Visible Light 11h 15m
Length of Day
10h 14m
Waning Crescent, 17% of the Moon is Illuminated
Oct 30
Waning Crescent
Nov 3
New
Nov 10
First Quarter
Nov 17
Full
Nov 25
Last Quarter

Hourly Weather History & Observations

Time (EDT) Temp. Windchill Dew Point Humidity Pressure Visibility Wind Dir Wind Speed Gust Speed Precip Events Conditions
12:15 AM 29.5 °F 25.9 °F 24.8 °F 83% 30.34 in 10.0 mi ESE 3.5 mph - N/A   Clear
12:35 AM 30.9 °F 27.5 °F 26.2 °F 83% 30.33 in 10.0 mi ESE 3.5 mph - N/A   Clear
12:55 AM 30.9 °F - 26.1 °F 82% 30.33 in 10.0 mi Calm Calm - N/A   Clear
1:15 AM 30.9 °F 27.5 °F 26.1 °F 82% 30.32 in 10.0 mi ESE 3.5 mph - N/A   Clear
1:35 AM 30.9 °F 27.5 °F 26.1 °F 82% 30.31 in 10.0 mi ESE 3.5 mph - N/A   Clear
1:55 AM 30.9 °F - 25.7 °F 81% 30.30 in 10.0 mi Calm Calm - N/A   Clear
2:15 AM 30.9 °F - 25.7 °F 81% 30.30 in 10.0 mi Calm Calm - N/A   Clear
2:35 AM 30.9 °F - 25.3 °F 80% 30.29 in 10.0 mi Calm Calm - N/A   Scattered Clouds
2:55 AM 30.9 °F 27.5 °F 25.2 °F 79% 30.29 in 10.0 mi ESE 3.5 mph - N/A   Scattered Clouds
3:15 AM 30.9 °F 26.2 °F 25.5 °F 80% 30.28 in 10.0 mi ESE 4.6 mph - N/A   Mostly Cloudy
3:35 AM 30.9 °F 27.5 °F 25.7 °F 81% 30.27 in 10.0 mi SE 3.5 mph - N/A   Mostly Cloudy
3:55 AM 30.9 °F - 25.7 °F 81% 30.28 in 10.0 mi Calm Calm - N/A   Overcast
4:15 AM 30.9 °F 27.5 °F 25.7 °F 81% 30.28 in 10.0 mi SE 3.5 mph - N/A   Overcast
4:35 AM 30.9 °F 27.5 °F 25.9 °F 82% 30.27 in 10.0 mi SE 3.5 mph - N/A   Overcast
4:55 AM 30.9 °F 27.5 °F 26.1 °F 82% 30.27 in 10.0 mi SE 3.5 mph - N/A   Overcast
5:15 AM 32.0 °F 28.7 °F 26.6 °F 80% 30.26 in 10.0 mi SE 3.5 mph - N/A   Overcast
5:35 AM 32.0 °F - 26.6 °F 80% 30.25 in 10.0 mi Calm Calm - N/A   Overcast
5:55 AM 32.0 °F - 26.4 °F 80% 30.25 in 10.0 mi Calm Calm - N/A   Mostly Cloudy
6:15 AM 32.5 °F 29.3 °F 27.0 °F 80% 30.26 in 10.0 mi South 3.5 mph - N/A   Mostly Cloudy
6:35 AM 33.1 °F - 27.3 °F 79% 30.27 in 10.0 mi Calm Calm - N/A   Overcast
6:55 AM 33.1 °F 30.0 °F 27.5 °F 80% 30.25 in 10.0 mi South 3.5 mph - N/A   Overcast
7:15 AM 35.4 °F 31.5 °F 28.9 °F 77% 30.25 in 10.0 mi South 4.6 mph - N/A   Overcast
7:35 AM 35.6 °F 31.7 °F 28.4 °F 75% 30.25 in 10.0 mi South 4.6 mph - N/A   Overcast
7:55 AM 35.6 °F 31.7 °F 27.0 °F 71% 30.26 in 10.0 mi South 4.6 mph - N/A   Overcast
8:15 AM 35.8 °F 33.0 °F 26.1 °F 68% 30.25 in 10.0 mi South 3.5 mph - N/A   Overcast
8:35 AM 38.3 °F 34.8 °F 27.5 °F 65% 30.26 in 10.0 mi South 4.6 mph - N/A   Overcast
8:55 AM 38.3 °F - 26.8 °F 63% 30.27 in 10.0 mi Calm Calm - N/A   Overcast
9:15 AM 38.3 °F - 26.1 °F 61% 30.28 in 10.0 mi Calm Calm - N/A   Overcast
9:35 AM 38.3 °F - 27.0 °F 64% 30.28 in 10.0 mi Calm Calm - N/A   Overcast
9:55 AM 39.7 °F - 29.3 °F 66% 30.26 in 10.0 mi Calm Calm - N/A   Overcast
10:15 AM 41.0 °F - 29.8 °F 64% 30.26 in 10.0 mi Calm Calm - N/A   Overcast
10:35 AM 41.0 °F - 30.0 °F 65% 30.26 in 10.0 mi Calm Calm - N/A   Overcast
10:55 AM 39.6 °F - 28.6 °F 65% 30.26 in 10.0 mi Calm Calm - N/A   Overcast
11:15 AM 41.0 °F - 29.3 °F 63% 30.26 in 10.0 mi Calm Calm - N/A   Overcast
11:35 AM 41.0 °F - 29.1 °F 63% 30.26 in 10.0 mi Calm Calm - N/A   Overcast
11:55 AM 41.0 °F 39.0 °F 29.7 °F 64% 30.25 in 10.0 mi South 3.5 mph - N/A   Overcast
12:15 PM 41.0 °F 39.0 °F 31.5 °F 69% 30.25 in 10.0 mi SSW 3.5 mph - N/A   Overcast
12:35 PM 41.0 °F 38.0 °F 32.0 °F 70% 30.24 in 10.0 mi South 4.6 mph - N/A   Overcast
12:55 PM 41.0 °F 39.0 °F 32.4 °F 71% 30.23 in 10.0 mi South 3.5 mph - N/A   Overcast
1:15 PM 41.7 °F 39.8 °F 33.1 °F 71% 30.22 in 10.0 mi South 3.5 mph - N/A   Overcast
1:35 PM 43.0 °F 39.5 °F 33.3 °F 69% 30.20 in 10.0 mi SSW 5.8 mph - N/A   Overcast
1:55 PM 43.3 °F 40.7 °F 33.8 °F 69% 30.20 in 10.0 mi South 4.6 mph - N/A   Overcast
2:15 PM 43.7 °F 41.1 °F 32.9 °F 66% 30.20 in 10.0 mi SSW 4.6 mph - N/A   Overcast
2:35 PM 44.6 °F 42.2 °F 33.3 °F 64% 30.19 in 10.0 mi SSW 4.6 mph - N/A   Overcast
2:55 PM 44.8 °F - 33.1 °F 64% 30.18 in 10.0 mi Calm Calm - N/A   Mostly Cloudy
3:15 PM 45.9 °F 43.6 °F 33.1 °F 61% 30.18 in 10.0 mi SSW 4.6 mph - N/A   Scattered Clouds
3:35 PM 47.3 °F - 33.8 °F 59% 30.18 in 10.0 mi SSW 5.8 mph - N/A   Mostly Cloudy
3:55 PM 45.9 °F - 33.3 °F 61% 30.18 in 10.0 mi Calm Calm - N/A   Mostly Cloudy
4:15 PM 45.9 °F 44.6 °F 33.1 °F 61% 30.17 in 10.0 mi SSW 3.5 mph - N/A   Mostly Cloudy
4:35 PM 48.6 °F - 34.9 °F 59% 30.17 in 10.0 mi South 4.6 mph - N/A   Mostly Cloudy
4:55 PM 45.9 °F - 33.6 °F 62% 30.18 in 10.0 mi Calm Calm - N/A   Mostly Cloudy
5:15 PM 44.6 °F - 33.1 °F 64% 30.18 in 10.0 mi Calm Calm - N/A   Mostly Cloudy
5:35 PM 43.5 °F - 32.9 °F 66% 30.18 in 10.0 mi Calm Calm - N/A   Mostly Cloudy
5:55 PM 42.1 °F - 31.8 °F 67% 30.18 in 10.0 mi Calm Calm - N/A   Scattered Clouds
6:15 PM 42.1 °F - 32.0 °F 67% 30.20 in 10.0 mi Calm Calm - N/A   Mostly Cloudy
6:35 PM 41.5 °F - 31.8 °F 68% 30.20 in 10.0 mi Calm Calm - N/A   Overcast
6:55 PM 41.0 °F - 31.8 °F 70% 30.20 in 10.0 mi Calm Calm - N/A   Mostly Cloudy
7:15 PM 41.0 °F - 32.2 °F 71% 30.21 in 10.0 mi Calm Calm - N/A   Scattered Clouds
8:55 PM 35.6 °F - 32.0 °F 87% 30.21 in 10.0 mi Calm Calm - N/A   Overcast
9:15 PM 35.6 °F - 32.2 °F 87% 30.20 in 10.0 mi Calm Calm - N/A   Overcast
9:35 PM 37.9 °F - 34.2 °F 86% 30.20 in 10.0 mi Calm Calm - N/A   Overcast
9:55 PM 38.3 °F - 34.3 °F 86% 30.20 in 10.0 mi Calm Calm - N/A   Overcast
10:15 PM 38.3 °F - 34.2 °F 85% 30.20 in 10.0 mi Calm Calm - N/A   Overcast
10:35 PM 38.5 °F 36.1 °F 33.6 °F 83% 30.20 in 10.0 mi ESE 3.5 mph - N/A   Overcast
10:55 PM 38.5 °F - 33.8 °F 83% 30.20 in 10.0 mi Calm Calm - N/A   Overcast
11:15 PM 39.4 °F - 34.2 °F 82% 30.20 in 10.0 mi Calm Calm - N/A   Overcast
11:35 PM 39.0 °F - 34.2 °F 83% 30.20 in 10.0 mi Calm Calm - N/A   Overcast
11:55 PM 38.3 °F 35.9 °F 33.4 °F 83% 30.21 in 10.0 mi SE 3.5 mph - N/A   Mostly Cloudy